CZ-6A DEB, 54924

Orbit data source: Space-Track

CZ-6A DEB, 54924 is space debris in SSO originally from a launch on Fri, 11 Nov 2022 UTC launched from the Taiyaun Space Center, China (TSC). Debris objects in space refer to the collection of defunct objects orbiting the Earth. Examples of debris include non-operational satellites, rocket bodies, and fragments generated from explosions, collisions, or faulty payload assembly.

Loading next visibility...
Identifier
54924, 2022-151RM
Orbit
SSO
Country
Flag of CNCN / PRC
Related business
Manufacturer
SAST
Mission
Spacecraft
Bus & Motor
Unknown
Mass
Unknown
Launch date (UTC)
2022-11-11 (4 years ago)
Launch vehicle
Unknown
Launch site
Taiyaun Space Center, China (TSC)
Object type
Payload
Rocket body
Debris
Shape & HBR
Unknown shape, 0.1 m
Radar Cross Section
Small (<0.1 m²)

Expand to show TLE details & history
Last TLE update: 12 hours ago

TLE from 12 hours ago
0 CZ-6A DEB
1 54924U 22151RM  26263.06407130  .00002426  00000-0  76922-3 0  9998
2 54924  98.7320 305.1313 0038220  27.6482 332.6728 14.40565333201003
Epoch: 2026-09-20T01:32Z
TLE epoch observation values (Epoch: 2026-09-20T01:32:15.760Z)
Latitude
0.00006°
Longitude
-76.898°
Altitude
735.364 km
Speed
7.5 km/s
True Right ascension
20h 20m 31s
True Declination
0° 00' 00"
Sunlit
Object was in full shadow at epoch
Visualization orbit readout
Latitude
Unknown
Longitude
Unknown
Altitude
Unknown
Speed
Unknown
Apparent Right ascension
Unknown
Apparent Declination
Unknown
Sunlit
N/A
Visualization observer readout
Local Sidereal Time
06:08:28
Azimuth
Unknown
Elevation
Unknown
Doppler factor
Unknown
Orbital elements
Apogee altitude
781.022 km
Perigee altitude
726.505 km
Semi-major axis
7,131.9 km
Eccentricity
0.00382
Inclination
98.732°
RAAN
305.1313°
Arg. of periapsis
27.6482°
True anomaly
332.47088°
Mean anomaly
332.6728°
Eccentric anomaly
332.57193°
Mean motion
3.60359 °/min
Orbital period
99.9 mins
BSTAR
0.00076922
Loading maneuver chart data...
Computing Atmospheric mass density...
Loading historical data...
Loading historical data...
Loading historical data...
Loading historical data...
Loading historical data...
Loading historical data...
Loading historical data...

Documentation

Showing up to 5 results
|